Year,Month,Day,Hour,Minute,Value (Times are PST for windspeed in km/hr)
2018,02,28,00,00,3.20
2018,02,28,00,01,0.80
2018,02,28,00,02,1.80
2018,02,28,00,03,2.90
2018,02,28,00,04,2.60
2018,02,28,00,05,4.10
2018,02,28,00,06,13.70
2018,02,28,00,07,5.50
2018,02,28,00,08,4.90
2018,02,28,00,09,9.30
2018,02,28,00,10,5.70
2018,02,28,00,11,5.20
2018,02,28,00,12,8.20
2018,02,28,00,13,5.10
2018,02,28,00,14,10.80
2018,02,28,00,15,10.50
2018,02,28,00,16,10.80
2018,02,28,00,17,6.90
2018,02,28,00,18,4.00
2018,02,28,00,19,1.60
2018,02,28,00,20,2.50
2018,02,28,00,21,2.90
2018,02,28,00,22,2.20
2018,02,28,00,23,2.20
2018,02,28,00,24,3.20
2018,02,28,00,25,1.60
2018,02,28,00,26,4.20
2018,02,28,00,27,3.00
2018,02,28,00,28,2.60
2018,02,28,00,29,6.30
2018,02,28,00,30,5.50
2018,02,28,00,31,3.20
2018,02,28,00,32,3.90
2018,02,28,00,33,6.70
2018,02,28,00,34,5.40
2018,02,28,00,35,1.70
2018,02,28,00,36,2.60
2018,02,28,00,37,4.40
2018,02,28,00,38,4.40
2018,02,28,00,39,7.60
2018,02,28,00,40,2.80
2018,02,28,00,41,3.60
2018,02,28,00,42,5.60
2018,02,28,00,43,5.10
2018,02,28,00,44,3.90
2018,02,28,00,45,4.50
2018,02,28,00,46,5.00
2018,02,28,00,47,0.60
2018,02,28,00,48,3.00
2018,02,28,00,49,5.10
2018,02,28,00,50,10.70
2018,02,28,00,51,8.70
2018,02,28,00,52,7.80
2018,02,28,00,53,7.80
2018,02,28,00,54,7.80
2018,02,28,00,55,9.20
2018,02,28,00,56,6.60
2018,02,28,00,57,4.90
2018,02,28,00,58,4.70
2018,02,28,00,59,4.30
2018,02,28,01,00,4.40
2018,02,28,01,01,4.80
2018,02,28,01,02,3.40
2018,02,28,01,03,4.80
2018,02,28,01,04,3.20
2018,02,28,01,05,1.10
2018,02,28,01,06,5.10
2018,02,28,01,07,2.30
2018,02,28,01,08,3.30
2018,02,28,01,09,6.00
2018,02,28,01,10,7.70
2018,02,28,01,11,3.00
2018,02,28,01,12,8.30
2018,02,28,01,13,4.70
2018,02,28,01,14,5.40
2018,02,28,01,15,4.20
2018,02,28,01,16,5.90
2018,02,28,01,17,4.60
2018,02,28,01,18,4.40
2018,02,28,01,19,4.50
2018,02,28,01,20,3.60
2018,02,28,01,21,2.60
2018,02,28,01,22,2.70
2018,02,28,01,23,3.40
2018,02,28,01,24,0.80
2018,02,28,01,25,0.80
2018,02,28,01,26,2.40
2018,02,28,01,27,2.50
2018,02,28,01,28,3.20
2018,02,28,01,29,4.40
2018,02,28,01,30,1.50
2018,02,28,01,31,0.70
2018,02,28,01,32,1.70
2018,02,28,01,33,2.40
2018,02,28,01,34,1.10
2018,02,28,01,35,3.70
2018,02,28,01,36,4.20
2018,02,28,01,37,5.30
2018,02,28,01,38,7.00
2018,02,28,01,39,6.90
2018,02,28,01,40,8.30
2018,02,28,01,41,6.40
2018,02,28,01,42,2.90
2018,02,28,01,43,2.90
2018,02,28,01,44,8.30
2018,02,28,01,45,4.70
2018,02,28,01,46,6.90
2018,02,28,01,47,5.30
2018,02,28,01,48,4.00
2018,02,28,01,49,2.90
2018,02,28,01,50,4.00
2018,02,28,01,51,3.30
2018,02,28,01,52,4.80
2018,02,28,01,53,4.30
2018,02,28,01,54,3.80
2018,02,28,01,55,3.20
2018,02,28,01,56,4.20
2018,02,28,01,57,4.00
2018,02,28,01,58,4.90
2018,02,28,01,59,5.00
2018,02,28,02,00,2.70
2018,02,28,02,01,3.70
2018,02,28,02,02,5.10
2018,02,28,02,03,2.80
2018,02,28,02,04,2.40
2018,02,28,02,05,1.60
2018,02,28,02,06,4.80
2018,02,28,02,07,3.70
2018,02,28,02,08,3.90
2018,02,28,02,09,6.20
2018,02,28,02,10,5.50
2018,02,28,02,11,4.20
2018,02,28,02,12,4.20
2018,02,28,02,13,3.50
2018,02,28,02,14,4.90
2018,02,28,02,15,4.60
2018,02,28,02,16,5.80
2018,02,28,02,17,6.30
2018,02,28,02,18,4.60
2018,02,28,02,19,7.60
2018,02,28,02,20,5.20
2018,02,28,02,21,6.50
2018,02,28,02,22,5.10
2018,02,28,02,23,4.60
2018,02,28,02,24,6.00
2018,02,28,02,25,5.40
2018,02,28,02,26,7.50
2018,02,28,02,27,6.20
2018,02,28,02,28,4.70
2018,02,28,02,29,2.50
2018,02,28,02,30,3.50
2018,02,28,02,31,2.00
2018,02,28,02,32,0.70
2018,02,28,02,33,0.50
2018,02,28,02,34,3.00
2018,02,28,02,35,2.30
2018,02,28,02,36,3.90
2018,02,28,02,37,5.00
2018,02,28,02,38,3.90
2018,02,28,02,39,2.40
2018,02,28,02,40,1.60
2018,02,28,02,41,0.10
2018,02,28,02,42,0.20
2018,02,28,02,43,0.20
2018,02,28,02,44,0.10
2018,02,28,02,45,0.90
2018,02,28,02,46,2.00
2018,02,28,02,47,0.20
2018,02,28,02,48,0.60
2018,02,28,02,49,1.00
2018,02,28,02,50,3.40
2018,02,28,02,51,2.00
2018,02,28,02,52,4.00
2018,02,28,02,53,3.10
2018,02,28,02,54,1.60
2018,02,28,02,55,2.30
2018,02,28,02,56,2.10
2018,02,28,02,57,1.00
2018,02,28,02,58,0.40
2018,02,28,02,59,0.00
2018,02,28,03,00,2.50
2018,02,28,03,01,1.00
2018,02,28,03,02,1.00
2018,02,28,03,03,1.50
2018,02,28,03,04,2.60
2018,02,28,03,05,1.30
2018,02,28,03,06,0.00
2018,02,28,03,07,0.30
2018,02,28,03,08,1.50
2018,02,28,03,09,1.80
2018,02,28,03,10,3.70
2018,02,28,03,11,1.10
2018,02,28,03,12,2.70
2018,02,28,03,13,3.70
2018,02,28,03,14,2.80
2018,02,28,03,15,3.00
2018,02,28,03,16,2.20
2018,02,28,03,17,1.90
2018,02,28,03,18,3.00
2018,02,28,03,19,1.00
2018,02,28,03,20,1.00
2018,02,28,03,21,2.10
2018,02,28,03,22,1.70
2018,02,28,03,23,1.20
2018,02,28,03,24,1.00
2018,02,28,03,25,1.60
2018,02,28,03,26,3.50
2018,02,28,03,27,0.10
2018,02,28,03,28,0.30
2018,02,28,03,29,0.20
2018,02,28,03,30,0.10
2018,02,28,03,31,1.80
2018,02,28,03,32,1.20
2018,02,28,03,33,0.90
2018,02,28,03,34,2.10
2018,02,28,03,35,2.90
2018,02,28,03,36,5.90
2018,02,28,03,37,11.60
2018,02,28,03,38,19.50
2018,02,28,03,39,13.20
2018,02,28,03,40,6.00
2018,02,28,03,41,4.20
2018,02,28,03,42,5.70
2018,02,28,03,43,7.80
2018,02,28,03,44,5.50
2018,02,28,03,45,7.90
2018,02,28,03,46,5.80
2018,02,28,03,47,5.10
2018,02,28,03,48,2.10
2018,02,28,03,49,2.30
2018,02,28,03,50,0.80
2018,02,28,03,51,2.70
2018,02,28,03,52,3.70
2018,02,28,03,53,3.50
2018,02,28,03,54,3.50
2018,02,28,03,55,4.30
2018,02,28,03,56,1.30
2018,02,28,03,57,1.20
2018,02,28,03,58,2.60
2018,02,28,03,59,6.50
2018,02,28,04,00,6.00
2018,02,28,04,01,3.30
2018,02,28,04,02,6.30
2018,02,28,04,03,7.20
2018,02,28,04,04,9.20
2018,02,28,04,05,9.10
2018,02,28,04,06,5.50
2018,02,28,04,07,6.50
2018,02,28,04,08,1.40
2018,02,28,04,09,1.00
2018,02,28,04,10,4.00
2018,02,28,04,11,5.70
2018,02,28,04,12,6.90
2018,02,28,04,13,4.50
2018,02,28,04,14,2.90
2018,02,28,04,15,1.40
2018,02,28,04,16,3.20
2018,02,28,04,17,2.10
2018,02,28,04,18,3.50
2018,02,28,04,19,5.80
2018,02,28,04,20,8.50
2018,02,28,04,21,4.60
2018,02,28,04,22,4.60
2018,02,28,04,23,10.40
2018,02,28,04,24,6.70
2018,02,28,04,25,3.70
2018,02,28,04,26,4.60
2018,02,28,04,27,7.20
2018,02,28,04,28,5.50
2018,02,28,04,29,5.50
2018,02,28,04,30,4.90
2018,02,28,04,31,5.30
2018,02,28,04,32,4.30
2018,02,28,04,33,4.40
2018,02,28,04,34,10.10
2018,02,28,04,35,8.60
2018,02,28,04,36,7.00
2018,02,28,04,37,5.80
2018,02,28,04,38,7.60
2018,02,28,04,39,5.10
2018,02,28,04,40,6.90
2018,02,28,04,41,5.40
2018,02,28,04,42,2.60
2018,02,28,04,43,5.10
2018,02,28,04,44,8.10
2018,02,28,04,45,5.70
2018,02,28,04,46,3.60
2018,02,28,04,47,3.90
2018,02,28,04,48,4.00
2018,02,28,04,49,7.40
2018,02,28,04,50,12.30
2018,02,28,04,51,5.70
2018,02,28,04,52,7.00
2018,02,28,04,53,8.10
2018,02,28,04,54,11.80
2018,02,28,04,55,9.40
2018,02,28,04,56,11.40
2018,02,28,04,57,7.80
2018,02,28,04,58,9.40
2018,02,28,04,59,7.90
2018,02,28,05,00,5.40
2018,02,28,05,01,9.10
2018,02,28,05,02,8.20
2018,02,28,05,03,6.30
2018,02,28,05,04,7.80
2018,02,28,05,05,6.10
2018,02,28,05,06,8.10
2018,02,28,05,07,6.20
2018,02,28,05,08,5.70
2018,02,28,05,09,4.50
2018,02,28,05,10,7.10
2018,02,28,05,11,4.80
2018,02,28,05,12,3.30
2018,02,28,05,13,4.00
2018,02,28,05,14,2.00
2018,02,28,05,15,6.30
2018,02,28,05,16,4.50
2018,02,28,05,17,4.30
2018,02,28,05,18,4.90
2018,02,28,05,19,5.70
2018,02,28,05,20,4.30
2018,02,28,05,21,5.00
2018,02,28,05,22,9.20
2018,02,28,05,23,5.50
2018,02,28,05,24,5.60
2018,02,28,05,25,6.40
2018,02,28,05,26,4.60
2018,02,28,05,27,3.90
2018,02,28,05,28,7.80
2018,02,28,05,29,6.00
2018,02,28,05,30,5.60
2018,02,28,05,31,5.60
2018,02,28,05,32,8.70
2018,02,28,05,33,6.00
2018,02,28,05,34,6.30
2018,02,28,05,35,5.20
2018,02,28,05,36,4.80
2018,02,28,05,37,4.50
2018,02,28,05,38,7.30
2018,02,28,05,39,6.20
2018,02,28,05,40,7.50
2018,02,28,05,41,6.30
2018,02,28,05,42,6.30
2018,02,28,05,43,6.40
2018,02,28,05,44,5.20
2018,02,28,05,45,6.30
2018,02,28,05,46,6.00
2018,02,28,05,47,5.20
2018,02,28,05,48,3.70
2018,02,28,05,49,3.90
2018,02,28,05,50,6.70
2018,02,28,05,51,5.50
2018,02,28,05,52,6.10
2018,02,28,05,53,2.10
2018,02,28,05,54,2.50
2018,02,28,05,55,7.70
2018,02,28,05,56,7.60
2018,02,28,05,57,3.20
2018,02,28,05,58,5.10
2018,02,28,05,59,5.30
2018,02,28,06,00,1.50
2018,02,28,06,01,1.30
2018,02,28,06,02,0.50
2018,02,28,06,03,3.90
2018,02,28,06,04,5.50
2018,02,28,06,05,6.30
2018,02,28,06,06,6.10
2018,02,28,06,07,8.30
2018,02,28,06,08,6.00
2018,02,28,06,09,9.40
2018,02,28,06,10,8.40
2018,02,28,06,11,8.00
2018,02,28,06,12,3.00
2018,02,28,06,13,3.90
2018,02,28,06,14,3.10
2018,02,28,06,15,5.40
2018,02,28,06,16,3.80
2018,02,28,06,17,7.20
2018,02,28,06,18,2.60
2018,02,28,06,19,5.20
2018,02,28,06,20,10.50
2018,02,28,06,21,7.70
2018,02,28,06,22,7.20
2018,02,28,06,23,2.70
2018,02,28,06,24,0.20
2018,02,28,06,25,1.70
2018,02,28,06,26,4.60
2018,02,28,06,27,3.90
2018,02,28,06,28,5.90
2018,02,28,06,29,8.50
2018,02,28,06,30,4.90
2018,02,28,06,31,4.00
2018,02,28,06,32,6.30
2018,02,28,06,33,3.10
2018,02,28,06,34,2.20
2018,02,28,06,35,3.60
2018,02,28,06,36,3.20
2018,02,28,06,37,3.40
2018,02,28,06,38,4.30
2018,02,28,06,39,3.60
2018,02,28,06,40,4.10
2018,02,28,06,41,4.30
2018,02,28,06,42,5.90
2018,02,28,06,43,2.90
2018,02,28,06,44,3.00
2018,02,28,06,45,3.90
2018,02,28,06,46,7.20
2018,02,28,06,47,4.20
2018,02,28,06,48,4.40
2018,02,28,06,49,4.60
2018,02,28,06,50,4.00
2018,02,28,06,51,6.50
2018,02,28,06,52,4.30
2018,02,28,06,53,2.70
2018,02,28,06,54,0.70
2018,02,28,06,55,2.70
2018,02,28,06,56,2.70
2018,02,28,06,57,1.80
2018,02,28,06,58,1.10
2018,02,28,06,59,2.40
2018,02,28,07,00,1.80
2018,02,28,07,01,2.40
2018,02,28,07,02,2.40
2018,02,28,07,03,3.40
2018,02,28,07,04,2.70
2018,02,28,07,05,5.40
2018,02,28,07,06,2.50
2018,02,28,07,07,1.70
2018,02,28,07,08,1.00
2018,02,28,07,09,1.20
2018,02,28,07,10,3.00
2018,02,28,07,11,0.50
2018,02,28,07,12,0.60
2018,02,28,07,13,1.00
2018,02,28,07,14,1.20
2018,02,28,07,15,0.80
2018,02,28,07,16,2.60
2018,02,28,07,17,2.60
2018,02,28,07,18,5.20
2018,02,28,07,19,7.00
2018,02,28,07,20,3.60
2018,02,28,07,21,2.60
2018,02,28,07,22,4.30
2018,02,28,07,23,1.40
2018,02,28,07,24,1.60
2018,02,28,07,25,2.40
2018,02,28,07,26,7.00
2018,02,28,07,27,3.40
2018,02,28,07,28,3.00
2018,02,28,07,29,0.80
2018,02,28,07,30,0.90
2018,02,28,07,31,4.00
2018,02,28,07,32,1.70
2018,02,28,07,33,0.80
2018,02,28,07,34,9.10
2018,02,28,07,35,6.70
2018,02,28,07,36,7.20
2018,02,28,07,37,5.00
2018,02,28,07,38,7.60
2018,02,28,07,39,7.20
2018,02,28,07,40,4.80
2018,02,28,07,41,4.70
2018,02,28,07,42,5.40
2018,02,28,07,43,5.40
2018,02,28,07,44,4.20
2018,02,28,07,45,7.00
2018,02,28,07,46,4.80
2018,02,28,07,47,5.30
2018,02,28,07,48,9.40
2018,02,28,07,49,6.00
2018,02,28,07,50,2.40
2018,02,28,07,51,4.20
2018,02,28,07,52,9.40
2018,02,28,07,53,8.50
2018,02,28,07,54,4.80
2018,02,28,07,55,5.10
2018,02,28,07,56,8.20
2018,02,28,07,57,7.70
2018,02,28,07,58,8.50
2018,02,28,07,59,6.30
2018,02,28,08,00,5.30
2018,02,28,08,01,5.70
2018,02,28,08,02,8.50
2018,02,28,08,03,9.10
2018,02,28,08,04,5.50
2018,02,28,08,05,11.20
2018,02,28,08,06,8.60
2018,02,28,08,07,7.50
2018,02,28,08,08,7.20
2018,02,28,08,09,8.00
2018,02,28,08,10,11.60
2018,02,28,08,11,8.10
2018,02,28,08,12,6.60
2018,02,28,08,13,10.00
2018,02,28,08,14,5.40
2018,02,28,08,15,8.40
2018,02,28,08,16,10.20
2018,02,28,08,17,10.70
2018,02,28,08,18,8.60
2018,02,28,08,19,9.10
2018,02,28,08,20,7.90
2018,02,28,08,21,8.70
2018,02,28,08,22,2.60
2018,02,28,08,23,6.60
2018,02,28,08,24,7.90
2018,02,28,08,25,13.40
2018,02,28,08,26,4.90
2018,02,28,08,27,7.00
2018,02,28,08,28,6.10
2018,02,28,08,29,6.90
2018,02,28,08,30,8.70
2018,02,28,08,31,10.00
2018,02,28,08,32,9.00
2018,02,28,08,33,12.60
2018,02,28,08,34,7.30
2018,02,28,08,35,8.90
2018,02,28,08,36,7.60
2018,02,28,08,37,10.40
2018,02,28,08,38,9.50
2018,02,28,08,39,8.00
2018,02,28,08,40,5.80
2018,02,28,08,41,7.30
2018,02,28,08,42,7.00
2018,02,28,08,43,8.60
2018,02,28,08,44,9.20
2018,02,28,08,45,14.50
2018,02,28,08,46,7.90
2018,02,28,08,47,9.00
2018,02,28,08,48,4.30
2018,02,28,08,49,11.30
2018,02,28,08,50,10.80
2018,02,28,08,51,4.80
2018,02,28,08,52,8.90
2018,02,28,08,53,7.70
2018,02,28,08,54,7.20
2018,02,28,08,55,7.50
2018,02,28,08,56,2.80
2018,02,28,08,57,7.60
2018,02,28,08,58,8.50
2018,02,28,08,59,15.00
2018,02,28,09,00,6.60
2018,02,28,09,01,8.40
2018,02,28,09,02,9.60
2018,02,28,09,03,7.70
2018,02,28,09,04,10.50
2018,02,28,09,05,9.30
2018,02,28,09,06,13.10
2018,02,28,09,07,6.10
2018,02,28,09,08,10.00
2018,02,28,09,09,10.50
2018,02,28,09,10,8.00
2018,02,28,09,11,13.10
2018,02,28,09,12,13.50
2018,02,28,09,13,7.80
2018,02,28,09,14,14.50
2018,02,28,09,15,12.30
2018,02,28,09,16,6.90
2018,02,28,09,17,10.00
2018,02,28,09,18,11.70
2018,02,28,09,19,10.30
2018,02,28,09,20,6.10
2018,02,28,09,21,10.80
2018,02,28,09,22,14.40
2018,02,28,09,23,12.90
2018,02,28,09,24,16.70
2018,02,28,09,25,16.50
2018,02,28,09,26,18.70
2018,02,28,09,27,10.00
2018,02,28,09,28,10.80
2018,02,28,09,29,15.50
2018,02,28,09,30,18.30
2018,02,28,09,31,19.20
2018,02,28,09,32,19.90
2018,02,28,09,33,13.10
2018,02,28,09,34,13.20
2018,02,28,09,35,12.10
2018,02,28,09,36,9.60
2018,02,28,09,37,11.00
2018,02,28,09,38,13.20
2018,02,28,09,39,12.90
2018,02,28,09,40,12.50
2018,02,28,09,41,14.20
2018,02,28,09,42,17.60
2018,02,28,09,43,14.90
2018,02,28,09,44,14.60
2018,02,28,09,45,17.40
2018,02,28,09,46,11.50
2018,02,28,09,47,13.50
2018,02,28,09,48,15.40
2018,02,28,09,49,16.30
2018,02,28,09,50,15.60
2018,02,28,09,51,13.20
2018,02,28,09,52,9.50
2018,02,28,09,53,8.10
2018,02,28,09,54,15.40
2018,02,28,09,55,14.10
2018,02,28,09,56,13.70
2018,02,28,09,57,16.50
2018,02,28,09,58,14.10
2018,02,28,09,59,18.00
2018,02,28,10,00,18.40
2018,02,28,10,01,15.10
2018,02,28,10,02,15.90
2018,02,28,10,03,13.90
2018,02,28,10,04,20.10
2018,02,28,10,05,17.40
2018,02,28,10,06,20.70
2018,02,28,10,07,14.00
2018,02,28,10,08,12.30
2018,02,28,10,09,15.00
2018,02,28,10,10,15.40
2018,02,28,10,11,15.30
2018,02,28,10,12,10.40
2018,02,28,10,13,8.60
2018,02,28,10,14,14.10
2018,02,28,10,15,16.70
2018,02,28,10,16,22.30
2018,02,28,10,17,21.20
2018,02,28,10,18,15.30
2018,02,28,10,19,14.10
2018,02,28,10,20,12.80
2018,02,28,10,21,20.70
2018,02,28,10,22,20.50
2018,02,28,10,23,12.50
2018,02,28,10,24,13.70
2018,02,28,10,25,11.90
2018,02,28,10,26,12.80
2018,02,28,10,27,21.00
2018,02,28,10,28,11.40
2018,02,28,10,29,16.50
2018,02,28,10,30,17.90
2018,02,28,10,31,17.30
2018,02,28,10,32,17.80
2018,02,28,10,33,15.50
2018,02,28,10,34,18.70
2018,02,28,10,35,17.80
2018,02,28,10,36,16.70
2018,02,28,10,37,17.10
2018,02,28,10,38,17.50
2018,02,28,10,39,19.70
2018,02,28,10,40,18.70
2018,02,28,10,41,14.50
2018,02,28,10,42,13.50
2018,02,28,10,43,20.70
2018,02,28,10,44,19.00
2018,02,28,10,45,19.50
2018,02,28,10,46,18.30
2018,02,28,10,47,15.90
2018,02,28,10,48,15.20
2018,02,28,10,49,13.70
2018,02,28,10,50,15.40
2018,02,28,10,51,19.70
2018,02,28,10,52,24.10
2018,02,28,10,53,13.20
2018,02,28,10,54,19.80
2018,02,28,10,55,20.40
2018,02,28,10,56,15.90
2018,02,28,10,57,14.00
2018,02,28,10,58,11.30
2018,02,28,10,59,10.20
2018,02,28,11,00,21.90
2018,02,28,11,01,21.90
2018,02,28,11,02,18.10
2018,02,28,11,03,13.90
2018,02,28,11,04,22.50
2018,02,28,11,05,20.80
2018,02,28,11,06,19.10
2018,02,28,11,07,16.20
2018,02,28,11,08,16.40
2018,02,28,11,09,16.60
2018,02,28,11,10,18.40
2018,02,28,11,11,21.80
2018,02,28,11,12,22.50
2018,02,28,11,13,18.20
2018,02,28,11,14,13.50
2018,02,28,11,15,18.00
2018,02,28,11,16,26.70
2018,02,28,11,17,28.30
2018,02,28,11,18,17.50
2018,02,28,11,19,13.10
2018,02,28,11,20,22.10
2018,02,28,11,21,17.40
2018,02,28,11,22,12.50
2018,02,28,11,23,16.80
2018,02,28,11,24,19.40
2018,02,28,11,25,23.60
2018,02,28,11,26,18.80
2018,02,28,11,27,15.80
2018,02,28,11,28,21.90
2018,02,28,11,29,23.80
2018,02,28,11,30,20.30
2018,02,28,11,31,21.80
2018,02,28,11,32,24.00
2018,02,28,11,33,19.70
2018,02,28,11,34,19.10
2018,02,28,11,35,22.10
2018,02,28,11,36,22.70
2018,02,28,11,37,22.30
2018,02,28,11,38,15.40
2018,02,28,11,39,21.10
2018,02,28,11,40,20.90
2018,02,28,11,41,25.50
2018,02,28,11,42,22.60
2018,02,28,11,43,26.40
2018,02,28,11,44,27.30
2018,02,28,11,45,19.10
2018,02,28,11,46,22.80
2018,02,28,11,47,23.90
2018,02,28,11,48,27.40
2018,02,28,11,49,22.10
2018,02,28,11,50,25.20
2018,02,28,11,51,25.70
2018,02,28,11,52,24.10
2018,02,28,11,53,25.60
2018,02,28,11,54,20.40
2018,02,28,11,55,19.50
2018,02,28,11,56,19.60
2018,02,28,11,57,27.90
2018,02,28,11,58,31.50
2018,02,28,11,59,31.40
2018,02,28,12,00,18.70
2018,02,28,12,01,24.60
2018,02,28,12,02,24.90
2018,02,28,12,03,30.40
2018,02,28,12,04,18.90
2018,02,28,12,05,21.00
2018,02,28,12,06,24.00
2018,02,28,12,07,27.50
2018,02,28,12,08,24.40
2018,02,28,12,09,27.80
2018,02,28,12,10,21.00
2018,02,28,12,11,25.90
2018,02,28,12,12,22.40
2018,02,28,12,13,19.70
2018,02,28,12,14,23.00
2018,02,28,12,15,19.80
2018,02,28,12,16,20.80
2018,02,28,12,17,30.30
2018,02,28,12,18,27.00
2018,02,28,12,19,22.20
2018,02,28,12,20,25.50
2018,02,28,12,21,35.10
2018,02,28,12,22,22.60
2018,02,28,12,23,22.00
2018,02,28,12,24,27.90
2018,02,28,12,25,20.60
2018,02,28,12,26,24.80
2018,02,28,12,27,21.20
2018,02,28,12,28,21.30
2018,02,28,12,29,30.10
2018,02,28,12,30,21.60
2018,02,28,12,31,20.10
2018,02,28,12,32,31.10
2018,02,28,12,33,25.40
2018,02,28,12,34,23.00
2018,02,28,12,35,18.50
2018,02,28,12,36,24.50
2018,02,28,12,37,27.70
2018,02,28,12,38,24.30
2018,02,28,12,39,23.00
2018,02,28,12,40,27.50
2018,02,28,12,41,27.20
2018,02,28,12,42,25.20
2018,02,28,12,43,27.70
2018,02,28,12,44,26.60
2018,02,28,12,45,28.70
2018,02,28,12,46,35.50
2018,02,28,12,47,22.10
2018,02,28,12,48,22.60
2018,02,28,12,49,17.70
2018,02,28,12,50,32.30
2018,02,28,12,51,29.40
2018,02,28,12,52,26.00
2018,02,28,12,53,22.10
2018,02,28,12,54,27.90
2018,02,28,12,55,24.90
2018,02,28,12,56,21.00
2018,02,28,12,57,16.00
2018,02,28,12,58,21.90
2018,02,28,12,59,28.70
2018,02,28,13,00,27.50
2018,02,28,13,01,26.40
2018,02,28,13,02,20.90
2018,02,28,13,03,21.60
2018,02,28,13,04,21.30
2018,02,28,13,05,23.20
2018,02,28,13,06,22.20
2018,02,28,13,07,24.00
2018,02,28,13,08,18.40
2018,02,28,13,09,26.40
2018,02,28,13,10,27.40
2018,02,28,13,11,18.30
2018,02,28,13,12,13.60
2018,02,28,13,13,22.50
2018,02,28,13,14,22.00
2018,02,28,13,15,22.30
2018,02,28,13,16,26.50
2018,02,28,13,17,21.00
2018,02,28,13,18,21.40
2018,02,28,13,19,19.70
2018,02,28,13,20,25.60
2018,02,28,13,21,27.30
2018,02,28,13,22,24.30
2018,02,28,13,23,30.60
2018,02,28,13,24,23.20
2018,02,28,13,25,22.90
2018,02,28,13,26,17.30
2018,02,28,13,27,26.50
2018,02,28,13,28,28.70
2018,02,28,13,29,26.70
2018,02,28,13,30,21.50
2018,02,28,13,31,21.90
2018,02,28,13,32,24.70
2018,02,28,13,33,25.10
2018,02,28,13,34,27.70
2018,02,28,13,35,25.90
2018,02,28,13,36,26.30
2018,02,28,13,37,38.80
2018,02,28,13,38,28.80
2018,02,28,13,39,26.50
2018,02,28,13,40,28.30
2018,02,28,13,41,28.10
2018,02,28,13,42,29.90
2018,02,28,13,43,24.90
2018,02,28,13,44,29.70
2018,02,28,13,45,22.60
2018,02,28,13,46,18.00
2018,02,28,13,47,20.10
2018,02,28,13,48,22.20
2018,02,28,13,49,20.70
2018,02,28,13,50,22.50
2018,02,28,13,51,28.00
2018,02,28,13,52,23.50
2018,02,28,13,53,23.00
2018,02,28,13,54,19.70
2018,02,28,13,55,27.70
2018,02,28,13,56,27.40
2018,02,28,13,57,29.30
2018,02,28,13,58,24.80
2018,02,28,13,59,23.90
2018,02,28,14,00,26.10
2018,02,28,14,01,22.90
2018,02,28,14,02,26.20
2018,02,28,14,03,20.50
2018,02,28,14,04,22.90
2018,02,28,14,05,19.50
2018,02,28,14,06,24.80
2018,02,28,14,07,28.90
2018,02,28,14,08,28.00
2018,02,28,14,09,30.20
2018,02,28,14,10,26.50
2018,02,28,14,11,26.10
2018,02,28,14,12,21.90
2018,02,28,14,13,31.00
2018,02,28,14,14,25.60
2018,02,28,14,15,28.00
2018,02,28,14,16,23.80
2018,02,28,14,17,28.70
2018,02,28,14,18,31.00
2018,02,28,14,19,34.60
2018,02,28,14,20,21.50
2018,02,28,14,21,24.10
2018,02,28,14,22,23.30
2018,02,28,14,23,26.60
2018,02,28,14,24,23.50
2018,02,28,14,25,29.40
2018,02,28,14,26,20.30
2018,02,28,14,27,29.90
2018,02,28,14,28,27.40
2018,02,28,14,29,25.20
2018,02,28,14,30,24.70
2018,02,28,14,31,27.10
2018,02,28,14,32,26.00
2018,02,28,14,33,25.70
2018,02,28,14,34,32.90
2018,02,28,14,35,24.60
2018,02,28,14,36,17.50
2018,02,28,14,37,23.60
2018,02,28,14,38,24.70
2018,02,28,14,39,22.50
2018,02,28,14,40,23.40
2018,02,28,14,41,27.40
2018,02,28,14,42,24.00
2018,02,28,14,43,20.60
2018,02,28,14,44,17.50
2018,02,28,14,45,21.60
2018,02,28,14,46,21.70
2018,02,28,14,47,20.90
2018,02,28,14,48,27.00
2018,02,28,14,49,20.50
2018,02,28,14,50,20.10
2018,02,28,14,51,20.10
2018,02,28,14,52,17.90
2018,02,28,14,53,17.50
2018,02,28,14,54,14.20
2018,02,28,14,55,16.40
2018,02,28,14,56,18.20
2018,02,28,14,57,20.40
2018,02,28,14,58,20.90
2018,02,28,14,59,18.90
2018,02,28,15,00,22.90
2018,02,28,15,01,21.00
2018,02,28,15,02,14.40
2018,02,28,15,03,18.50
2018,02,28,15,04,26.10
2018,02,28,15,05,20.90
2018,02,28,15,06,20.40
2018,02,28,15,07,26.20
2018,02,28,15,08,18.40
2018,02,28,15,09,17.50
2018,02,28,15,10,20.60
2018,02,28,15,11,17.60
2018,02,28,15,12,18.20
2018,02,28,15,13,15.90
2018,02,28,15,14,18.40
2018,02,28,15,15,19.50
2018,02,28,15,16,22.10
2018,02,28,15,17,20.60
2018,02,28,15,18,22.50
2018,02,28,15,19,17.80
2018,02,28,15,20,23.80
2018,02,28,15,21,22.70
2018,02,28,15,22,23.00
2018,02,28,15,23,19.20
2018,02,28,15,24,22.10
2018,02,28,15,25,22.80
2018,02,28,15,26,23.10
2018,02,28,15,27,19.50
2018,02,28,15,28,18.50
2018,02,28,15,29,22.50
2018,02,28,15,30,18.20
2018,02,28,15,31,14.90
2018,02,28,15,32,19.70
2018,02,28,15,33,22.80
2018,02,28,15,34,26.10
2018,02,28,15,35,20.00
2018,02,28,15,36,23.50
2018,02,28,15,37,22.00
2018,02,28,15,38,24.70
2018,02,28,15,39,16.60
2018,02,28,15,40,17.30
2018,02,28,15,41,17.20
2018,02,28,15,42,21.80
2018,02,28,15,43,24.10
2018,02,28,15,44,29.90
2018,02,28,15,45,21.70
2018,02,28,15,46,26.90
2018,02,28,15,47,21.70
2018,02,28,15,48,22.50
2018,02,28,15,49,18.00
2018,02,28,15,50,23.20
2018,02,28,15,51,20.10
2018,02,28,15,52,23.20
2018,02,28,15,53,25.20
2018,02,28,15,54,22.70
2018,02,28,15,55,26.90
2018,02,28,15,56,24.60
2018,02,28,15,57,18.20
2018,02,28,15,58,25.20
2018,02,28,15,59,28.40
2018,02,28,16,00,19.90
2018,02,28,16,01,20.20
2018,02,28,16,02,17.50
2018,02,28,16,03,26.30
2018,02,28,16,04,31.70
2018,02,28,16,05,26.60
2018,02,28,16,06,25.60
2018,02,28,16,07,26.40
2018,02,28,16,08,29.20
2018,02,28,16,09,35.60
2018,02,28,16,10,21.60
2018,02,28,16,11,27.40
2018,02,28,16,12,23.80
2018,02,28,16,13,26.30
2018,02,28,16,14,23.00
2018,02,28,16,15,23.40
2018,02,28,16,16,30.40
2018,02,28,16,17,24.60
2018,02,28,16,18,29.80
2018,02,28,16,19,24.60
2018,02,28,16,20,27.70
2018,02,28,16,21,23.20
2018,02,28,16,22,28.50
2018,02,28,16,23,26.70
2018,02,28,16,24,26.80
2018,02,28,16,25,29.60
2018,02,28,16,26,26.20
2018,02,28,16,27,25.00
2018,02,28,16,28,22.40
2018,02,28,16,29,25.10
2018,02,28,16,30,24.00
2018,02,28,16,31,27.00
2018,02,28,16,32,19.00
2018,02,28,16,33,36.20
2018,02,28,16,34,31.80
2018,02,28,16,35,32.80
2018,02,28,16,36,24.60
2018,02,28,16,37,23.80
2018,02,28,16,38,22.30
2018,02,28,16,39,25.50
2018,02,28,16,40,25.00
2018,02,28,16,41,25.90
2018,02,28,16,42,24.10
2018,02,28,16,43,24.40
2018,02,28,16,44,25.40
2018,02,28,16,45,22.20
2018,02,28,16,46,26.60
2018,02,28,16,47,22.10
2018,02,28,16,48,24.30
2018,02,28,16,49,28.00
2018,02,28,16,50,19.70
2018,02,28,16,51,25.10
2018,02,28,16,52,26.90
2018,02,28,16,53,29.30
2018,02,28,16,54,16.30
2018,02,28,16,55,20.90
2018,02,28,16,56,30.30
2018,02,28,16,57,26.60
2018,02,28,16,58,20.10
2018,02,28,16,59,26.30
2018,02,28,17,00,18.60
2018,02,28,17,01,21.30
2018,02,28,17,02,25.30
2018,02,28,17,03,26.70
2018,02,28,17,04,26.10
2018,02,28,17,05,29.10
2018,02,28,17,06,27.90
2018,02,28,17,07,27.00
2018,02,28,17,08,28.40
2018,02,28,17,09,28.80
2018,02,28,17,10,33.30
2018,02,28,17,11,24.90
2018,02,28,17,12,24.50
2018,02,28,17,13,32.20
2018,02,28,17,14,31.20
2018,02,28,17,15,38.90
2018,02,28,17,16,29.70
2018,02,28,17,17,31.00
2018,02,28,17,18,28.70
2018,02,28,17,19,33.20
2018,02,28,17,20,29.00
2018,02,28,17,21,27.50
2018,02,28,17,22,26.40
2018,02,28,17,23,21.00
2018,02,28,17,24,39.60
2018,02,28,17,25,34.70
2018,02,28,17,26,37.20
2018,02,28,17,27,28.70
2018,02,28,17,28,27.20
2018,02,28,17,29,34.30
2018,02,28,17,30,22.50
2018,02,28,17,31,27.20
2018,02,28,17,32,22.30
2018,02,28,17,33,25.10
2018,02,28,17,34,27.20
2018,02,28,17,35,21.10
2018,02,28,17,36,29.90
2018,02,28,17,37,23.00
2018,02,28,17,38,23.50
2018,02,28,17,39,19.10
2018,02,28,17,40,24.10
2018,02,28,17,41,26.00
2018,02,28,17,42,29.70